Terminal Aerodrome Forecast
Issued by NWS New Orleans/Baton Rouge, LA

Home | Current Version | Previous Version | Text Only | Print | Product List | Glossary On
Versions: 1 2 3 4 5 6 7 8 9 10 11 12 13 14 15 16 17 18 19 20 21 22 23 24 25 26 27 28 29
990
FTUS44 KLIX 130523
TAFNEW
TAF
KNEW 130523Z 1306/1406 02015KT P6SM SCT050
     FM131600 05011KT P6SM SKC
     FM132200 05006KT P6SM SKC=

USA.gov is the U.S. government's official web portal to all federal, state and local government web resources and services.